| time (UTC) | temp F | wind direction | speed MPH | gust MPH | rain 1hr in | rain 24hr in | rain mn in | humidity % | barometer mb |
| 20260510180045 | 72 | 222 | 0.0 | 3.0 | 0.00 | 0.00 | 0.00 | 55 | 1019.0 |
| 20260510175533 | 71 | 231 | 0.0 | 3.0 | 0.00 | 0.00 | 0.00 | 56 | 1019.0 |
| 20260510175032 | 71 | 208 | 0.0 | 1.0 | 0.00 | 0.00 | 0.00 | 56 | 1018.9 |
| 20260510174531 | 70 | 207 | 0.0 | 1.0 | 0.00 | 0.00 | 0.00 | 57 | 1018.9 |
| 20260510174030 | 70 | 199 | 0.0 | 2.0 | 0.00 | 0.00 | 0.00 | 60 | 1018.9 |
| 20260510173528 | 69 | 244 | 0.0 | 5.0 | 0.00 | 0.00 | 0.00 | 63 | 1018.9 |
| 20260510173026 | 69 | 248 | 0.0 | 5.0 | 0.00 | 0.00 | 0.00 | 64 | 1018.8 |
| 20260510172526 | 68 | 216 | 0.0 | 3.0 | 0.00 | 0.00 | 0.00 | 65 | 1018.8 |
| 20260510172026 | 68 | 221 | 0.0 | 3.0 | 0.00 | 0.00 | 0.00 | 64 | 1018.9 |
| 20260510171022 | 67 | 269 | 0.0 | 5.0 | 0.00 | 0.00 | 0.00 | 67 | 1018.9 |
| 20260510170520 | 67 | 275 | 0.0 | 5.0 | 0.00 | 0.00 | 0.00 | 68 | 1019.0 |
| 20260510170019 | 66 | 253 | 0.0 | 3.0 | 0.00 | 0.00 | 0.00 | 69 | 1018.9 |
| 20260510165518 | 66 | 250 | 0.0 | 7.0 | 0.00 | 0.00 | 0.00 | 69 | 1019.0 |
| 20260510165018 | 65 | 310 | 0.0 | 5.0 | 0.00 | 0.00 | 0.00 | 69 | 1018.9 |
| 20260510164532 | 65 | 273 | 0.0 | 5.0 | 0.00 | 0.00 | 0.00 | 70 | 1018.8 |
| 20260510164016 | 65 | 271 | 0.0 | 6.0 | 0.00 | 0.00 | 0.00 | 70 | 1018.8 |
| 20260510163515 | 65 | 308 | 0.0 | 6.0 | 0.00 | 0.00 | 0.00 | 70 | 1018.6 |
| 20260510163019 | 65 | 280 | 1.0 | 7.0 | 0.00 | 0.00 | 0.00 | 69 | 1018.7 |
| 20260510162516 | 65 | 280 | 0.0 | 7.0 | 0.00 | 0.00 | 0.00 | 70 | 1018.6 |
| 20260510162013 | 64 | 278 | 0.0 | 6.0 | 0.00 | 0.00 | 0.00 | 71 | 1018.6 |
| 20260510161014 | 64 | 278 | 0.0 | 10.0 | 0.00 | 0.00 | 0.00 | 71 | 1018.6 |
| 20260510160514 | 64 | 236 | 1.0 | 6.0 | 0.00 | 0.00 | 0.00 | 70 | 1018.7 |
| 20260510160014 | 64 | 253 | 0.0 | 4.0 | 0.00 | 0.00 | 0.00 | 72 | 1018.7 |
| 20260510155514 | 64 | 264 | 0.0 | 5.0 | 0.00 | 0.00 | 0.00 | 71 | 1018.7 |
| 20260510155013 | 65 | 251 | 0.0 | 3.0 | 0.00 | 0.00 | 0.00 | 70 | 1018.7 |
| 20260510154514 | 64 | 282 | 0.0 | 6.0 | 0.00 | 0.00 | 0.00 | 71 | 1018.6 |
| 20260510154012 | 64 | 287 | 0.0 | 6.0 | 0.00 | 0.00 | 0.00 | 71 | 1018.6 |
| 20260510153511 | 64 | 296 | 0.0 | 2.0 | 0.00 | 0.00 | 0.00 | 72 | 1018.6 |
| 20260510153018 | 64 | 269 | 0.0 | 1.0 | 0.00 | 0.00 | 0.00 | 71 | 1018.6 |
| 20260510152510 | 63 | 271 | 0.0 | 1.0 | 0.00 | 0.00 | 0.00 | 71 | 1018.6 |
| 20260510152009 | 63 | 222 | 0.0 | 2.0 | 0.00 | 0.00 | 0.00 | 73 | 1018.5 |
| 20260510151008 | 62 | 220 | 0.0 | 8.0 | 0.00 | 0.00 | 0.00 | 78 | 1018.4 |
| 20260510150507 | 61 | 217 | 0.0 | 8.0 | 0.00 | 0.00 | 0.00 | 79 | 1018.4 |
| 20260510150007 | 61 | 212 | 0.0 | 3.0 | 0.00 | 0.00 | 0.00 | 80 | 1018.4 |
| 20260510145512 | 61 | 270 | 0.0 | 5.0 | 0.00 | 0.00 | 0.00 | 81 | 1018.4 |
| 20260510145007 | 60 | 250 | 0.0 | 9.0 | 0.00 | 0.00 | 0.00 | 81 | 1018.3 |
| 20260510144506 | 60 | 274 | 0.0 | 9.0 | 0.00 | 0.00 | 0.00 | 82 | 1018.3 |
| 20260510144007 | 60 | 249 | 0.0 | 9.0 | 0.00 | 0.00 | 0.00 | 83 | 1018.3 |
| 20260510143507 | 59 | 274 | 1.0 | 10.0 | 0.00 | 0.00 | 0.00 | 83 | 1018.3 |
| 20260510143005 | 59 | 269 | 1.0 | 10.0 | 0.00 | 0.00 | 0.00 | 82 | 1018.3 |
| 20260510142505 | 59 | 252 | 0.0 | 8.0 | 0.00 | 0.00 | 0.00 | 82 | 1018.3 |
| 20260510142006 | 59 | 303 | 1.0 | 8.0 | 0.00 | 0.00 | 0.00 | 82 | 1018.1 |
| 20260510141003 | 59 | 256 | 1.0 | 7.0 | 0.00 | 0.00 | 0.00 | 82 | 1017.9 |
| 20260510140502 | 58 | 259 | 0.0 | 9.0 | 0.00 | 0.00 | 0.00 | 82 | 1017.8 |
| 20260510140001 | 58 | 236 | 1.0 | 9.0 | 0.00 | 0.00 | 0.00 | 81 | 1017.8 |
| 20260510135501 | 58 | 255 | 1.0 | 6.0 | 0.00 | 0.00 | 0.00 | 81 | 1017.8 |
| 20260510135001 | 58 | 276 | 0.0 | 3.0 | 0.00 | 0.00 | 0.00 | 82 | 1017.8 |
| 20260510134502 | 58 | 255 | 0.0 | 7.0 | 0.00 | 0.00 | 0.00 | 82 | 1017.7 |
| 20260510134104 | 58 | 263 | 0.0 | 7.0 | 0.00 | 0.00 | 0.00 | 82 | 1017.7 |
| 20260510133559 | 57 | 291 | 0.0 | 4.0 | 0.00 | 0.00 | 0.00 | 81 | 1017.6 |
| 20260510133105 | 57 | 276 | 0.0 | 0.0 | 0.00 | 0.00 | 0.00 | 82 | 1017.5 |
| 20260510132559 | 57 | 276 | 0.0 | 1.0 | 0.00 | 0.00 | 0.00 | 83 | 1017.4 |
| 20260510132100 | 57 | 278 | 0.0 | 2.0 | 0.00 | 0.00 | 0.00 | 83 | 1017.4 |
| 20260510131059 | 57 | 261 | 0.0 | 4.0 | 0.00 | 0.00 | 0.00 | 83 | 1017.3 |
| 20260510130601 | 58 | 267 | 0.0 | 6.0 | 0.00 | 0.00 | 0.00 | 83 | 1017.3 |
| 20260510130058 | 58 | 269 | 1.0 | 6.0 | 0.00 | 0.00 | 0.00 | 82 | 1017.2 |
| 20260510125558 | 58 | 285 | 0.0 | 5.0 | 0.00 | 0.00 | 0.00 | 81 | 1017.2 |
| 20260510125057 | 58 | 273 | 1.0 | 5.0 | 0.00 | 0.00 | 0.00 | 81 | 1017.2 |
| 20260510124611 | 58 | 264 | 1.0 | 5.0 | 0.00 | 0.00 | 0.00 | 81 | 1017.3 |
| 20260510124058 | 58 | 267 | 0.0 | 4.0 | 0.00 | 0.00 | 0.00 | 79 | 1017.3 |
| 20260510123556 | 58 | 273 | 0.0 | 4.0 | 0.00 | 0.00 | 0.00 | 78 | 1017.3 |
| 20260510123056 | 58 | 211 | 0.0 | 7.0 | 0.00 | 0.00 | 0.00 | 78 | 1017.3 |
| 20260510122554 | 58 | 261 | 1.0 | 7.0 | 0.00 | 0.00 | 0.00 | 78 | 1017.4 |
| 20260510122054 | 58 | 296 | 0.0 | 5.0 | 0.00 | 0.00 | 0.00 | 80 | 1017.4 |
| 20260510121053 | 58 | 278 | 0.0 | 7.0 | 0.00 | 0.00 | 0.00 | 78 | 1017.4 |
| 20260510120554 | 58 | 238 | 1.0 | 7.0 | 0.00 | 0.00 | 0.00 | 76 | 1017.4 |
| 20260510120054 | 59 | 256 | 0.0 | 8.0 | 0.00 | 0.00 | 0.00 | 78 | 1017.3 |
| 20260510115553 | 59 | 236 | 1.0 | 8.0 | 0.00 | 0.00 | 0.00 | 79 | 1017.4 |
| 20260510115100 | 59 | 251 | 2.0 | 8.0 | 0.00 | 0.00 | 0.00 | 80 | 1017.5 |
| 20260510114553 | 59 | 261 | 0.0 | 6.0 | 0.00 | 0.00 | 0.00 | 79 | 1017.4 |
| 20260510114052 | 59 | 276 | 1.0 | 6.0 | 0.00 | 0.00 | 0.00 | 80 | 1017.4 |
| 20260510113554 | 59 | 252 | 0.0 | 7.0 | 0.00 | 0.00 | 0.00 | 78 | 1017.5 |
| 20260510113101 | 58 | 267 | 0.0 | 7.0 | 0.00 | 0.00 | 0.00 | 79 | 1017.5 |
| 20260510112552 | 58 | 232 | 0.0 | 6.0 | 0.00 | 0.00 | 0.00 | 78 | 1017.5 |
| 20260510112052 | 58 | 220 | 1.0 | 7.0 | 0.00 | 0.00 | 0.00 | 74 | 1017.5 |
| 20260510111055 | 58 | 289 | 2.0 | 8.0 | 0.00 | 0.00 | 0.00 | 69 | 1017.5 |
| 20260510110552 | 58 | 259 | 2.0 | 10.0 | 0.00 | 0.00 | 0.00 | 67 | 1017.5 |
| 20260510110055 | 59 | 268 | 1.0 | 10.0 | 0.00 | 0.00 | 0.00 | 68 | 1017.5 |
| 20260510105550 | 59 | 275 | 2.0 | 9.0 | 0.00 | 0.00 | 0.00 | 71 | 1017.5 |
| 20260510105049 | 59 | 284 | 2.0 | 8.0 | 0.00 | 0.00 | 0.00 | 69 | 1017.5 |
| 20260510104603 | 59 | 254 | 1.0 | 9.0 | 0.00 | 0.00 | 0.00 | 71 | 1017.5 |
| 20260510104049 | 59 | 278 | 1.0 | 10.0 | 0.00 | 0.00 | 0.00 | 76 | 1017.5 |
| 20260510103548 | 59 | 299 | 2.0 | 8.0 | 0.00 | 0.00 | 0.00 | 76 | 1017.4 |
| 20260510103046 | 60 | 301 | 2.0 | 8.0 | 0.00 | 0.00 | 0.00 | 76 | 1017.4 |
| 20260510102548 | 60 | 292 | 2.0 | 8.0 | 0.00 | 0.00 | 0.00 | 75 | 1017.5 |
| 20260510102045 | 60 | 261 | 1.0 | 8.0 | 0.00 | 0.00 | 0.00 | 75 | 1017.5 |
| 20260510101043 | 60 | 309 | 0.0 | 10.0 | 0.00 | 0.00 | 0.00 | 74 | 1017.5 |
| 20260510100546 | 60 | 274 | 1.0 | 8.0 | 0.00 | 0.00 | 0.00 | 72 | 1017.4 |
| 20260510100042 | 61 | 272 | 1.0 | 8.0 | 0.00 | 0.00 | 0.00 | 72 | 1017.4 |
| 20260510095542 | 61 | 272 | 2.0 | 8.0 | 0.00 | 0.00 | 0.00 | 71 | 1017.4 |
| 20260510095043 | 61 | 285 | 1.0 | 9.0 | 0.00 | 0.00 | 0.00 | 71 | 1017.4 |
| 20260510094546 | 61 | 288 | 2.0 | 12.0 | 0.00 | 0.00 | 0.00 | 71 | 1017.5 |
| 20260510094038 | 61 | 264 | 1.0 | 12.0 | 0.00 | 0.00 | 0.00 | 71 | 1017.5 |
| 20260510093540 | 62 | 286 | 3.0 | 11.0 | 0.00 | 0.00 | 0.00 | 70 | 1017.5 |
| 20260510093037 | 62 | 292 | 3.0 | 11.0 | 0.00 | 0.00 | 0.00 | 68 | 1017.5 |
| 20260510092537 | 62 | 280 | 4.0 | 11.0 | 0.00 | 0.00 | 0.00 | 68 | 1017.5 |
| 20260510092037 | 62 | 316 | 3.0 | 10.0 | 0.00 | 0.00 | 0.00 | 69 | 1017.5 |
| 20260510091035 | 62 | 300 | 2.0 | 11.0 | 0.00 | 0.00 | 0.00 | 67 | 1017.5 |
| 20260510090535 | 63 | 299 | 3.0 | 11.0 | 0.00 | 0.00 | 0.00 | 66 | 1017.5 |
| 20260510090037 | 62 | 284 | 1.0 | 7.0 | 0.00 | 0.00 | 0.00 | 68 | 1017.6 |
| 20260510085535 | 62 | 279 | 1.0 | 6.0 | 0.00 | 0.00 | 0.00 | 68 | 1017.6 |
| 20260510085035 | 62 | 287 | 1.0 | 9.0 | 0.00 | 0.00 | 0.00 | 67 | 1017.5 |
| 20260510084542 | 62 | 268 | 2.0 | 9.0 | 0.00 | 0.00 | 0.00 | 68 | 1017.6 |
| 20260510084035 | 62 | 270 | 1.0 | 7.0 | 0.00 | 0.00 | 0.00 | 68 | 1017.7 |
| 20260510083535 | 62 | 296 | 1.0 | 7.0 | 0.00 | 0.00 | 0.00 | 69 | 1017.7 |
| 20260510083034 | 62 | 293 | 1.0 | 10.0 | 0.00 | 0.00 | 0.00 | 69 | 1017.8 |
| 20260510082534 | 62 | 282 | 1.0 | 10.0 | 0.00 | 0.00 | 0.00 | 71 | 1017.8 |
| 20260510082034 | 62 | 215 | 0.0 | 7.0 | 0.00 | 0.00 | 0.00 | 71 | 1017.9 |
| 20260510081034 | 63 | 255 | 1.0 | 7.0 | 0.00 | 0.00 | 0.00 | 70 | 1018.0 |
| 20260510080533 | 63 | 290 | 1.0 | 9.0 | 0.00 | 0.00 | 0.00 | 69 | 1018.0 |
| 20260510080036 | 63 | 280 | 2.0 | 9.0 | 0.00 | 0.00 | 0.00 | 67 | 1017.9 |
| 20260510075533 | 63 | 267 | 2.0 | 6.0 | 0.00 | 0.00 | 0.00 | 66 | 1017.9 |
| 20260510075033 | 63 | 309 | 0.0 | 9.0 | 0.00 | 0.00 | 0.00 | 64 | 1017.9 |
| 20260510074533 | 63 | 270 | 1.0 | 10.0 | 0.00 | 0.00 | 0.00 | 64 | 1017.9 |
| 20260510074036 | 64 | 265 | 1.0 | 10.0 | 0.00 | 0.00 | 0.00 | 63 | 1017.8 |
| 20260510073533 | 64 | 288 | 0.0 | 7.0 | 0.00 | 0.00 | 0.00 | 62 | 1017.8 |
| 20260510073039 | 64 | 237 | 0.0 | 9.0 | 0.00 | 0.00 | 0.00 | 60 | 1017.7 |
| 20260510072533 | 64 | 271 | 0.0 | 7.0 | 0.00 | 0.00 | 0.00 | 58 | 1017.7 |
| 20260510072032 | 64 | 267 | 1.0 | 9.0 | 0.00 | 0.00 | 0.00 | 57 | 1017.7 |
| 20260510071032 | 65 | 255 | 2.0 | 8.0 | 0.00 | 0.00 | 0.00 | 55 | 1017.8 |
| 20260510070532 | 65 | 322 | 2.0 | 11.0 | 0.00 | 0.00 | 0.00 | 55 | 1017.8 |
| 20260510070043 | 65 | 244 | 3.0 | 11.0 | 0.00 | 0.00 | 0.00 | 55 | 1017.8 |
| 20260510065532 | 65 | 272 | 2.0 | 9.0 | 0.00 | 0.00 | 0.00 | 55 | 1017.7 |
| 20260510065032 | 65 | 324 | 2.0 | 10.0 | 0.00 | 0.00 | 0.00 | 58 | 1017.8 |
| 20260510064554 | 65 | 309 | 2.0 | 10.0 | 0.00 | 0.00 | 0.00 | 58 | 1017.8 |
| 20260510064033 | 66 | 280 | 1.0 | 9.0 | 0.00 | 0.00 | 0.00 | 58 | 1017.8 |
| 20260510063532 | 66 | 292 | 3.0 | 9.0 | 0.00 | 0.00 | 0.00 | 55 | 1017.8 |
| 20260510063042 | 66 | 324 | 3.0 | 9.0 | 0.00 | 0.00 | 0.00 | 51 | 1017.8 |
| 20260510062531 | 67 | 294 | 3.0 | 10.0 | 0.00 | 0.00 | 0.00 | 50 | 1017.7 |
| 20260510062033 | 67 | 292 | 3.0 | 10.0 | 0.00 | 0.00 | 0.00 | 50 | 1017.8 |
| 20260510061032 | 67 | 299 | 4.0 | 12.0 | 0.00 | 0.00 | 0.00 | 50 | 1017.8 |
| 20260510060531 | 67 | 313 | 3.0 | 9.0 | 0.00 | 0.00 | 0.00 | 52 | 1017.8 |
| 20260510060038 | 67 | 253 | 2.0 | 10.0 | 0.00 | 0.00 | 0.00 | 50 | 1017.8 |
| 20260510055533 | 67 | 316 | 3.0 | 10.0 | 0.00 | 0.00 | 0.00 | 51 | 1017.8 |
| 20260510055031 | 67 | 278 | 2.0 | 10.0 | 0.00 | 0.00 | 0.00 | 52 | 1017.9 |
| 20260510054531 | 67 | 311 | 1.0 | 10.0 | 0.00 | 0.00 | 0.00 | 55 | 1017.9 |
| 20260510054032 | 67 | 261 | 2.0 | 9.0 | 0.00 | 0.00 | 0.00 | 53 | 1017.9 |
| 20260510053531 | 67 | 313 | 3.0 | 10.0 | 0.00 | 0.00 | 0.00 | 51 | 1018.0 |
| 20260510053031 | 67 | 274 | 2.0 | 10.0 | 0.00 | 0.00 | 0.00 | 52 | 1017.9 |
| 20260510052531 | 67 | 304 | 1.0 | 9.0 | 0.00 | 0.00 | 0.00 | 52 | 1017.9 |
| 20260510052032 | 68 | 258 | 3.0 | 9.0 | 0.00 | 0.00 | 0.00 | 52 | 1018.0 |
| 20260510051031 | 68 | 294 | 1.0 | 9.0 | 0.00 | 0.00 | 0.00 | 53 | 1017.9 |
| 20260510050530 | 68 | 272 | 1.0 | 10.0 | 0.00 | 0.00 | 0.00 | 53 | 1018.0 |
| 20260510050031 | 68 | 311 | 1.0 | 10.0 | 0.00 | 0.00 | 0.00 | 50 | 1018.0 |
| 20260510045531 | 68 | 296 | 2.0 | 9.0 | 0.00 | 0.00 | 0.00 | 52 | 1017.9 |
| 20260510045031 | 68 | 244 | 2.0 | 7.0 | 0.00 | 0.00 | 0.00 | 52 | 1018.0 |
| 20260510044533 | 68 | 311 | 1.0 | 10.0 | 0.00 | 0.00 | 0.00 | 51 | 1017.9 |
| 20260510044030 | 69 | 292 | 1.0 | 10.0 | 0.00 | 0.00 | 0.00 | 51 | 1017.8 |
| 20260510043530 | 69 | 273 | 1.0 | 8.0 | 0.00 | 0.00 | 0.00 | 48 | 1017.8 |
| 20260510043030 | 69 | 287 | 1.0 | 11.0 | 0.00 | 0.00 | 0.00 | 47 | 1017.8 |
| 20260510042529 | 70 | 291 | 0.0 | 9.0 | 0.00 | 0.00 | 0.00 | 48 | 1017.8 |
| 20260510042029 | 70 | 290 | 1.0 | 10.0 | 0.00 | 0.00 | 0.00 | 45 | 1017.8 |
| 20260510041030 | 70 | 257 | 2.0 | 11.0 | 0.00 | 0.00 | 0.00 | 46 | 1017.7 |
| 20260510040530 | 71 | 238 | 2.0 | 9.0 | 0.00 | 0.00 | 0.00 | 43 | 1017.6 |
| 20260510040032 | 71 | 238 | 1.0 | 12.0 | 0.00 | 0.00 | 0.00 | 42 | 1017.5 |
| 20260510035529 | 71 | 263 | 1.0 | 12.0 | 0.00 | 0.00 | 0.00 | 42 | 1017.5 |
| 20260510035029 | 71 | 220 | 1.0 | 6.0 | 0.00 | 0.00 | 0.00 | 43 | 1017.5 |
| 20260510034529 | 71 | 195 | 0.0 | 9.0 | 0.00 | 0.00 | 0.00 | 43 | 1017.4 |
| 20260510034029 | 71 | 215 | 2.0 | 9.0 | 0.00 | 0.00 | 0.00 | 43 | 1017.4 |
| 20260510033529 | 71 | 210 | 0.0 | 11.0 | 0.00 | 0.00 | 0.00 | 44 | 1017.3 |
| 20260510033029 | 71 | 174 | 1.0 | 12.0 | 0.00 | 0.00 | 0.00 | 46 | 1017.2 |
| 20260510032529 | 71 | 178 | 2.0 | 14.0 | 0.00 | 0.00 | 0.00 | 44 | 1017.2 |
| 20260510032029 | 72 | 195 | 1.0 | 14.0 | 0.00 | 0.00 | 0.00 | 45 | 1017.1 |
| 20260510031046 | 72 | 205 | 1.0 | 7.0 | 0.00 | 0.00 | 0.00 | 46 | 1017.1 |
| 20260510030546 | 72 | 130 | 0.0 | 8.0 | 0.00 | 0.00 | 0.00 | 41 | 1017.1 |
| 20260510030055 | 72 | 229 | 1.0 | 8.0 | 0.00 | 0.00 | 0.00 | 40 | 1017.1 |
| 20260510025545 | 73 | 241 | 0.0 | 11.0 | 0.00 | 0.00 | 0.00 | 40 | 1017.0 |
| 20260510025048 | 73 | 205 | 3.0 | 11.0 | 0.00 | 0.00 | 0.00 | 39 | 1017.1 |
| 20260510024550 | 73 | 207 | 1.0 | 10.0 | 0.00 | 0.00 | 0.00 | 38 | 1017.0 |
| 20260510024045 | 73 | 190 | 0.0 | 11.0 | 0.00 | 0.00 | 0.00 | 39 | 1017.0 |
| 20260510023548 | 74 | 190 | 1.0 | 11.0 | 0.00 | 0.00 | 0.00 | 39 | 1016.9 |
| 20260510023044 | 74 | 174 | 1.0 | 14.0 | 0.00 | 0.00 | 0.00 | 38 | 1017.0 |
| 20260510022544 | 75 | 191 | 2.0 | 11.0 | 0.00 | 0.00 | 0.00 | 37 | 1017.0 |
| 20260510022047 | 75 | 222 | 0.0 | 9.0 | 0.00 | 0.00 | 0.00 | 38 | 1017.0 |
| 20260510021029 | 76 | 276 | 3.0 | 12.0 | 0.00 | 0.00 | 0.00 | 38 | 1017.0 |
| 20260510020526 | 76 | 285 | 2.0 | 13.0 | 0.00 | 0.00 | 0.00 | 38 | 1017.0 |
| 20260510020026 | 76 | 267 | 0.0 | 13.0 | 0.00 | 0.00 | 0.00 | 40 | 1017.1 |
| 20260510015525 | 76 | 151 | 0.0 | 9.0 | 0.00 | 0.00 | 0.00 | 40 | 1017.0 |
| 20260510015025 | 76 | 184 | 0.0 | 8.0 | 0.00 | 0.00 | 0.00 | 42 | 1017.0 |
| 20260510014529 | 77 | 237 | 1.0 | 11.0 | 0.00 | 0.00 | 0.00 | 42 | 1016.9 |
| 20260510014026 | 77 | 288 | 2.0 | 12.0 | 0.00 | 0.00 | 0.00 | 42 | 1016.9 |
| 20260510013526 | 78 | 311 | 1.0 | 12.0 | 0.00 | 0.00 | 0.00 | 42 | 1016.9 |
| 20260510013026 | 78 | 263 | 2.0 | 12.0 | 0.00 | 0.00 | 0.00 | 42 | 1017.0 |
| 20260510012525 | 78 | 313 | 2.0 | 10.0 | 0.00 | 0.00 | 0.00 | 41 | 1016.9 |
| 20260510012025 | 78 | 310 | 2.0 | 10.0 | 0.00 | 0.00 | 0.00 | 43 | 1017.0 |
| 20260510011026 | 79 | 322 | 2.0 | 14.0 | 0.00 | 0.00 | 0.00 | 42 | 1017.1 |
| 20260510010525 | 79 | 296 | 2.0 | 11.0 | 0.00 | 0.00 | 0.00 | 45 | 1017.0 |
| 20260510010025 | 79 | 338 | 1.0 | 7.0 | 0.00 | 0.00 | 0.00 | 45 | 1017.0 |
| 20260510005524 | 80 | 272 | 1.0 | 8.0 | 0.00 | 0.00 | 0.00 | 44 | 1017.1 |
| 20260510005024 | 80 | 324 | 0.0 | 8.0 | 0.00 | 0.00 | 0.00 | 46 | 1017.1 |
| 20260510004524 | 80 | 310 | 1.0 | 8.0 | 0.00 | 0.00 | 0.00 | 47 | 1017.1 |
| 20260510004025 | 81 | 282 | 0.0 | 8.0 | 0.00 | 0.00 | 0.00 | 48 | 1017.1 |
| 20260510003534 | 81 | 222 | 1.0 | 8.0 | 0.00 | 0.00 | 0.00 | 48 | 1017.1 |
| 20260510003032 | 81 | 341 | 1.0 | 7.0 | 0.00 | 0.00 | 0.00 | 47 | 1017.1 |
| 20260510002523 | 81 | 307 | 0.0 | 8.0 | 0.00 | 0.00 | 0.00 | 44 | 1017.1 |
| 20260510002024 | 82 | 282 | 1.0 | 6.0 | 0.00 | 0.00 | 0.00 | 45 | 1017.1 |
| 20260510001023 | 82 | 159 | 1.0 | 6.0 | 0.00 | 0.00 | 0.00 | 45 | 1017.1 |
| 20260510000522 | 82 | 319 | 0.0 | 9.0 | 0.00 | 0.00 | 0.00 | 44 | 1017.1 |
| 20260510000025 | 82 | 318 | 1.0 | 9.0 | 0.00 | 0.00 | 0.00 | 42 | 1017.1 |
| 20260509235521 | 82 | 309 | 0.0 | 5.0 | 0.00 | 0.00 | 0.00 | 42 | 1017.2 |
| 20260509235020 | 82 | 259 | 0.0 | 7.0 | 0.00 | 0.00 | 0.00 | 46 | 1017.2 |
| 20260509234533 | 83 | 333 | 0.0 | 8.0 | 0.00 | 0.00 | 0.00 | 47 | 1017.3 |
| 20260509234023 | 83 | 278 | 2.0 | 9.0 | 0.00 | 0.00 | 0.00 | 39 | 1017.3 |
| 20260509233519 | 83 | 256 | 1.0 | 11.0 | 0.00 | 0.00 | 0.00 | 39 | 1017.3 |
| 20260509233031 | 83 | 282 | 2.0 | 11.0 | 0.00 | 0.00 | 0.00 | 41 | 1017.4 |
| 20260509232520 | 83 | 274 | 0.0 | 9.0 | 0.00 | 0.00 | 0.00 | 41 | 1017.4 |
| 20260509232020 | 83 | 248 | 1.0 | 9.0 | 0.00 | 0.00 | 0.00 | 41 | 1017.4 |
| 20260509231018 | 83 | 286 | 1.0 | 9.0 | 0.00 | 0.00 | 0.00 | 41 | 1017.4 |
| 20260509230518 | 84 | 346 | 0.0 | 6.0 | 0.00 | 0.00 | 0.00 | 40 | 1017.4 |
| 20260509230018 | 84 | 315 | 0.0 | 5.0 | 0.00 | 0.00 | 0.00 | 39 | 1017.5 |
| 20260509225518 | 84 | 315 | 0.0 | 5.0 | 0.00 | 0.00 | 0.00 | 39 | 1017.6 |
| 20260509225017 | 83 | 281 | 0.0 | 6.0 | 0.00 | 0.00 | 0.00 | 39 | 1017.6 |
| 20260509224518 | 83 | 324 | 0.0 | 4.0 | 0.00 | 0.00 | 0.00 | 39 | 1017.6 |
| 20260509224016 | 83 | 330 | 0.0 | 7.0 | 0.00 | 0.00 | 0.00 | 39 | 1017.7 |
| 20260509223516 | 83 | 319 | 1.0 | 7.0 | 0.00 | 0.00 | 0.00 | 38 | 1017.7 |
| 20260509223017 | 84 | 311 | 1.0 | 6.0 | 0.00 | 0.00 | 0.00 | 38 | 1017.8 |
| 20260509222514 | 84 | 334 | 1.0 | 5.0 | 0.00 | 0.00 | 0.00 | 38 | 1017.9 |
| 20260509222015 | 84 | 331 | 0.0 | 5.0 | 0.00 | 0.00 | 0.00 | 37 | 1018.0 |
| 20260509221017 | 83 | 280 | 0.0 | 6.0 | 0.00 | 0.00 | 0.00 | 40 | 1018.1 |
| 20260509220516 | 83 | 286 | 2.0 | 6.0 | 0.00 | 0.00 | 0.00 | 38 | 1018.1 |
| 20260509220018 | 83 | 315 | 0.0 | 7.0 | 0.00 | 0.00 | 0.00 | 38 | 1018.2 |
| 20260509215512 | 84 | 321 | 0.0 | 5.0 | 0.00 | 0.00 | 0.00 | 38 | 1018.1 |
| 20260509215017 | 83 | 317 | 0.0 | 3.0 | 0.00 | 0.00 | 0.00 | 39 | 1018.2 |
| 20260509214510 | 83 | 315 | 0.0 | 5.0 | 0.00 | 0.00 | 0.00 | 38 | 1018.3 |
| 20260509214012 | 82 | 300 | 0.0 | 5.0 | 0.00 | 0.00 | 0.00 | 39 | 1018.4 |
| 20260509213519 | 82 | 326 | 1.0 | 5.0 | 0.00 | 0.00 | 0.00 | 38 | 1018.4 |
| 20260509213008 | 82 | 311 | 0.0 | 4.0 | 0.00 | 0.00 | 0.00 | 37 | 1018.5 |
| 20260509212505 | 82 | 318 | 0.0 | 3.0 | 0.00 | 0.00 | 0.00 | 39 | 1018.5 |
| 20260509212008 | 81 | 303 | 0.0 | 5.0 | 0.00 | 0.00 | 0.00 | 40 | 1018.6 |
| 20260509211105 | 81 | 326 | 1.0 | 5.0 | 0.00 | 0.00 | 0.00 | 40 | 1018.6 |
| 20260509210503 | 81 | 303 | 1.0 | 5.0 | 0.00 | 0.00 | 0.00 | 42 | 1018.7 |
| 20260509210003 | 80 | 307 | 0.0 | 7.0 | 0.00 | 0.00 | 0.00 | 43 | 1018.7 |
| 20260509205502 | 80 | 280 | 0.0 | 7.0 | 0.00 | 0.00 | 0.00 | 48 | 1018.8 |
| 20260509205002 | 80 | 275 | 0.0 | 7.0 | 0.00 | 0.00 | 0.00 | 46 | 1018.8 |
| 20260509204502 | 80 | 279 | 1.0 | 7.0 | 0.00 | 0.00 | 0.00 | 48 | 1018.8 |
| 20260509204002 | 80 | 251 | 0.0 | 4.0 | 0.00 | 0.00 | 0.00 | 46 | 1018.9 |
| 20260509203503 | 81 | 299 | 0.0 | 4.0 | 0.00 | 0.00 | 0.00 | 46 | 1018.9 |
| 20260509203101 | 81 | 249 | 0.0 | 2.0 | 0.00 | 0.00 | 0.00 | 47 | 1018.9 |
| 20260509202601 | 80 | 248 | 0.0 | 2.0 | 0.00 | 0.00 | 0.00 | 44 | 1019.0 |
| 20260509202058 | 80 | 247 | 0.0 | 3.0 | 0.00 | 0.00 | 0.00 | 47 | 1019.1 |
| 20260509201659 | 79 | 251 | 1.0 | 6.0 | 0.00 | 0.00 | 0.00 | 43 | 1019.1 |
| 20260509201056 | 80 | 282 | 0.0 | 4.0 | 0.00 | 0.00 | 0.00 | 42 | 1019.1 |
| 20260509200555 | 79 | 269 | 0.0 | 4.0 | 0.00 | 0.00 | 0.00 | 45 | 1019.2 |
| 20260509200103 | 79 | 289 | 0.0 | 6.0 | 0.00 | 0.00 | 0.00 | 45 | 1019.2 |
| 20260509195557 | 78 | 278 | 0.0 | 6.0 | 0.00 | 0.00 | 0.00 | 44 | 1019.3 |
| 20260509195056 | 78 | 286 | 0.0 | 4.0 | 0.00 | 0.00 | 0.00 | 43 | 1019.3 |
| 20260509194551 | 77 | 298 | 0.0 | 6.0 | 0.00 | 0.00 | 0.00 | 41 | 1019.3 |
| 20260509194052 | 76 | 293 | 0.0 | 6.0 | 0.00 | 0.00 | 0.00 | 45 | 1019.3 |
| 20260509193548 | 75 | 311 | 0.0 | 5.0 | 0.00 | 0.00 | 0.00 | 48 | 1019.4 |
| 20260509193052 | 75 | 297 | 0.0 | 5.0 | 0.00 | 0.00 | 0.00 | 50 | 1019.4 |
| 20260509192545 | 74 | 292 | 1.0 | 4.0 | 0.00 | 0.00 | 0.00 | 50 | 1019.5 |
| 20260509192044 | 73 | 269 | 0.0 | 5.0 | 0.00 | 0.00 | 0.00 | 56 | 1019.5 |
| 20260509191644 | 73 | 224 | 0.0 | 5.0 | 0.00 | 0.00 | 0.00 | 57 | 1019.6 |
| 20260509191042 | 72 | 307 | 0.0 | 5.0 | 0.00 | 0.00 | 0.00 | 57 | 1019.6 |
| 20260509190541 | 73 | 274 | 1.0 | 5.0 | 0.00 | 0.00 | 0.00 | 56 | 1019.7 |
| 20260509190041 | 73 | 301 | 0.0 | 4.0 | 0.00 | 0.00 | 0.00 | 58 | 1019.7 |
| 20260509185541 | 73 | 291 | 0.0 | 4.0 | 0.00 | 0.00 | 0.00 | 55 | 1019.7 |
| 20260509185040 | 72 | 313 | 0.0 | 4.0 | 0.00 | 0.00 | 0.00 | 56 | 1019.7 |
| 20260509184544 | 72 | 264 | 0.0 | 5.0 | 0.00 | 0.00 | 0.00 | 55 | 1019.7 |
| 20260509184037 | 71 | 262 | 0.0 | 5.0 | 0.00 | 0.00 | 0.00 | 55 | 1019.8 |
| 20260509183539 | 71 | 215 | 0.0 | 1.0 | 0.00 | 0.00 | 0.00 | 57 | 1019.9 |
| 20260509183037 | 71 | 209 | 0.0 | 4.0 | 0.00 | 0.00 | 0.00 | 58 | 1019.9 |
| 20260509182535 | 70 | 274 | 0.0 | 5.0 | 0.00 | 0.00 | 0.00 | 57 | 1019.9 |
| 20260509182034 | 70 | 275 | 0.0 | 5.0 | 0.00 | 0.00 | 0.00 | 53 | 1020.0 |
| 20260509181635 | 70 | 224 | 0.0 | 3.0 | 0.00 | 0.00 | 0.00 | 55 | 1020.0 |
| 20260509181034 | 70 | 220 | 0.0 | 3.0 | 0.00 | 0.00 | 0.00 | 56 | 1020.0 |
| 20260509180532 | 70 | 289 | 0.0 | 3.0 | 0.00 | 0.00 | 0.00 | 54 | 1020.1 |